Hourly Weather Malanje

Today, 25 September, Friday

Time Temperature Precipitation Wind Pressure Humidity
00:00 +21°C° 0 mm 2 mps 665 mmHg 71%
01:00 +21°C° 0 mm 2 mps 666 mmHg 77%
02:00 +20°C° 0 mm 2 mps 665 mmHg 80%
03:00 +20°C° 0 mm 2 mps 665 mmHg 83%
04:00 +19°C° 0 mm 2 mps 665 mmHg 86%
05:00 +19°C° 0 mm 2 mps 665 mmHg 86%
06:00 +20°C° 0 mm 2 mps 666 mmHg 85%
07:00 +20°C° 0 mm 2 mps 666 mmHg 83%
08:00 +24°C° 0 mm 2 mps 667 mmHg 73%
09:00 +26°C° 0 mm 2 mps 667 mmHg 62%
10:00 +29°C° 0 mm 2 mps 668 mmHg 51%
11:00 +31°C° 0 mm 1 mps 668 mmHg 44%
12:00 +34°C° 0 mm 1 mps 667 mmHg 37%
13:00 +35°C° 0 mm 0 mps 667 mmHg 29%
14:00 +33°C° 0 mm 0 mps 666 mmHg 31%
15:00 +32°C° 0 mm 0 mps 665 mmHg 32%
16:00 +30°C° 0 mm 0 mps 664 mmHg 33%
17:00 +30°C° 0 mm 1 mps 664 mmHg 38%
18:00 +29°C° 0 mm 2 mps 664 mmHg 43%
19:00 +28°C° 0 mm 2 mps 665 mmHg 48%
20:00 +26°C° 0 mm 3 mps 665 mmHg 53%
21:00 +25°C° 0 mm 3 mps 665 mmHg 57%
22:00 +24°C° 0 mm 3 mps 665 mmHg 62%
23:00 +21°C° 0 mm 4 mps 665 mmHg 69%

Tomorrow, 26 September, Saturday

Time Temperature Precipitation Wind Pressure Humidity
00:00 +20°C° 0 mm 4 mps 664 mmHg 76%
01:00 +19°C° 0 mm 4 mps 664 mmHg 83%
02:00 +19°C° 0 mm 4 mps 664 mmHg 82%
03:00 +19°C° 0 mm 3 mps 664 mmHg 81%
04:00 +19°C° 0 mm 3 mps 664 mmHg 80%
05:00 +19°C° 0 mm 3 mps 665 mmHg 79%
06:00 +19°C° 0 mm 3 mps 665 mmHg 79%
07:00 +20°C° 0 mm 3 mps 665 mmHg 78%
08:00 +22°C° 0 mm 3 mps 666 mmHg 70%
09:00 +25°C° 0 mm 3 mps 666 mmHg 61%
10:00 +28°C° 0 mm 3 mps 666 mmHg 53%
11:00 +29°C° 0 mm 3 mps 666 mmHg 46%
12:00 +31°C° 0 mm 2 mps 665 mmHg 39%
13:00 +34°C° 0 mm 2 mps 665 mmHg 33%
14:00 +34°C° 0 mm 2 mps 664 mmHg 32%
15:00 +34°C° 0 mm 2 mps 664 mmHg 32%
16:00 +32°C° 0 mm 2 mps 663 mmHg 31%
17:00 +30°C° 0 mm 3 mps 663 mmHg 37%
18:00 +29°C° 0 mm 3 mps 663 mmHg 43%
19:00 +27°C° 0 mm 4 mps 663 mmHg 48%
20:00 +26°C° 0 mm 4 mps 663 mmHg 52%
21:00 +25°C° 0 mm 3 mps 663 mmHg 55%
22:00 +24°C° 0 mm 3 mps 664 mmHg 59%
23:00 +21°C° 0 mm 3 mps 663 mmHg 66%

Day after tomorrow, 27 September, Sunday

Time Temperature Precipitation Wind Pressure Humidity
00:00 +20°C° 0 mm 4 mps 663 mmHg 74%
01:00 +19°C° 0 mm 4 mps 663 mmHg 82%
02:00 +19°C° 0 mm 4 mps 663 mmHg 82%
03:00 +19°C° 0 mm 4 mps 663 mmHg 83%
04:00 +18°C° 0 mm 4 mps 663 mmHg 83%
05:00 +19°C° 0 mm 3 mps 663 mmHg 81%
06:00 +19°C° 0 mm 3 mps 664 mmHg 79%
07:00 +19°C° 0 mm 3 mps 664 mmHg 76%
08:00 +21°C° 0 mm 3 mps 665 mmHg 66%
09:00 +25°C° 0 mm 3 mps 665 mmHg 56%
10:00 +28°C° 0 mm 3 mps 666 mmHg 46%
11:00 +29°C° 0 mm 3 mps 665 mmHg 41%
12:00 +31°C° 0 mm 3 mps 665 mmHg 35%
13:00 +34°C° 0 mm 3 mps 664 mmHg 30%
14:00 +34°C° 0 mm 3 mps 664 mmHg 31%
15:00 +33°C° 0 mm 3 mps 663 mmHg 32%
16:00 +33°C° 0 mm 4 mps 662 mmHg 32%
17:00 +30°C° 0 mm 4 mps 663 mmHg 37%
18:00 +28°C° 0 mm 4 mps 663 mmHg 42%
19:00 +26°C° 0 mm 4 mps 663 mmHg 47%
20:00 +25°C° 0 mm 4 mps 663 mmHg 51%
21:00 +23°C° 0 mm 4 mps 664 mmHg 55%
22:00 +22°C° 0 mm 3 mps 664 mmHg 58%
23:00 +21°C° 0 mm 4 mps 664 mmHg 66%

28 September, Monday

Time Temperature Precipitation Wind Pressure Humidity
00:00 +20°C° 0 mm 4 mps 663 mmHg 74%
01:00 +19°C° 0 mm 4 mps 663 mmHg 83%
02:00 +19°C° 0 mm 4 mps 663 mmHg 82%
03:00 +19°C° 0 mm 3 mps 663 mmHg 81%
04:00 +19°C° 0 mm 3 mps 663 mmHg 80%
05:00 +19°C° 0 mm 3 mps 664 mmHg 79%
06:00 +19°C° 0 mm 3 mps 664 mmHg 79%
07:00 +19°C° 0 mm 3 mps 665 mmHg 78%
08:00 +22°C° 0 mm 3 mps 665 mmHg 65%
09:00 +26°C° 0 mm 2 mps 666 mmHg 53%
10:00 +29°C° 0 mm 2 mps 667 mmHg 41%
11:00 +30°C° 0 mm 2 mps 666 mmHg 36%
12:00 +32°C° 0 mm 2 mps 666 mmHg 32%
13:00 +35°C° 0 mm 2 mps 665 mmHg 28%
14:00 +35°C° 0 mm 2 mps 665 mmHg 28%
15:00 +35°C° 0 mm 2 mps 664 mmHg 29%
16:00 +34°C° 0 mm 2 mps 664 mmHg 29%
17:00 +31°C° 0 mm 3 mps 664 mmHg 33%
18:00 +29°C° 0 mm 3 mps 664 mmHg 37%
19:00 +27°C° 0 mm 3 mps 664 mmHg 41%
20:00 +26°C° 0 mm 3 mps 664 mmHg 45%
21:00 +25°C° 0 mm 3 mps 665 mmHg 48%
22:00 +24°C° 0 mm 3 mps 665 mmHg 51%
23:00 +22°C° 0 mm 3 mps 664 mmHg 60%

29 September, Tuesday

Time Temperature Precipitation Wind Pressure Humidity
00:00 +21°C° 0 mm 3 mps 664 mmHg 69%
01:00 +19°C° 0 mm 4 mps 664 mmHg 78%
02:00 +19°C° 0 mm 3 mps 663 mmHg 80%
03:00 +18°C° 0 mm 3 mps 663 mmHg 82%
04:00 +18°C° 0 mm 3 mps 663 mmHg 84%
05:00 +18°C° 0.1 mm 3 mps 664 mmHg 82%
06:00 +18°C° 0.1 mm 2 mps 665 mmHg 80%
07:00 +18°C° 0.1 mm 2 mps 665 mmHg 78%
08:00 +23°C° 0 mm 2 mps 666 mmHg 66%
09:00 +26°C° 0 mm 1 mps 667 mmHg 53%
10:00 +29°C° 0 mm 1 mps 668 mmHg 41%
11:00 +30°C° 0 mm 2 mps 667 mmHg 37%
12:00 +32°C° 0 mm 2 mps 666 mmHg 34%
13:00 +34°C° 0 mm 2 mps 665 mmHg 30%
14:00 +34°C° 0 mm 2 mps 665 mmHg 31%
15:00 +34°C° 0 mm 2 mps 664 mmHg 31%
16:00 +32°C° 0 mm 2 mps 664 mmHg 31%
17:00 +30°C° 0 mm 2 mps 664 mmHg 35%
18:00 +28°C° 0 mm 3 mps 664 mmHg 39%
19:00 +26°C° 0 mm 3 mps 664 mmHg 44%
20:00 +25°C° 0 mm 3 mps 664 mmHg 46%
21:00 +24°C° 0 mm 3 mps 664 mmHg 49%
22:00 +22°C° 0 mm 3 mps 665 mmHg 52%
23:00 +21°C° 0 mm 3 mps 664 mmHg 61%

30 September, Wednesday

Time Temperature Precipitation Wind Pressure Humidity
00:00 +20°C° 0 mm 3 mps 664 mmHg 70%
01:00 +19°C° 0 mm 4 mps 663 mmHg 79%
02:00 +19°C° 0.2 mm 3 mps 663 mmHg 81%
03:00 +19°C° 0.2 mm 3 mps 663 mmHg 83%
04:00 +18°C° 0.2 mm 3 mps 663 mmHg 85%
05:00 +18°C° 0 mm 2 mps 664 mmHg 84%
06:00 +18°C° 0 mm 2 mps 664 mmHg 82%
07:00 +19°C° 0 mm 2 mps 665 mmHg 80%
08:00 +20°C° 0 mm 2 mps 665 mmHg 74%
09:00 +21°C° 0 mm 3 mps 665 mmHg 68%
10:00 +22°C° 0 mm 3 mps 665 mmHg 62%
11:00 +25°C° 0 mm 3 mps 665 mmHg 54%
12:00 +27°C° 0 mm 3 mps 664 mmHg 47%
13:00 +29°C° 0 mm 3 mps 664 mmHg 39%
14:00 +29°C° 0 mm 3 mps 663 mmHg 40%
15:00 +29°C° 0 mm 3 mps 663 mmHg 40%
16:00 +29°C° 0 mm 4 mps 662 mmHg 41%
17:00 +27°C° 0 mm 3 mps 662 mmHg 44%
18:00 +26°C° 0 mm 3 mps 663 mmHg 48%
19:00 +25°C° 0 mm 3 mps 663 mmHg 51%
20:00 +24°C° 0 mm 3 mps 663 mmHg 55%
21:00 +23°C° 0 mm 2 mps 663 mmHg 59%
22:00 +21°C° 0 mm 2 mps 664 mmHg 63%
23:00 +20°C° 0 mm 2 mps 663 mmHg 68%
Show more